Simultaneous Nadir Overpasses (SNOs) Predictions

Prediction of SNOs between GOES-16 and METOP-C Satellite Orbit:

Table of predicted SNOs for the next 14.0 days since TLE Epoch: 5/15/2020
Index Date Time (GOES-16) GOES-16 Lat,Lon METOP-C Lat,Lon Distance(km) Time Diff (sec)
1 05/18/2020 02:34:04 -0.03, -75.19 -0.06, -75.28 10.74 80
2 05/20/2020 14:32:17 0.02, -75.25 -0.09, -74.86 45.20 80
3 05/22/2020 02:51:18 -0.02, -75.24 -0.94, -79.46 480.60 80
4 05/23/2020 02:27:58 -0.02, -75.25 0.16, -74.46 89.65 80
5 05/24/2020 14:46:50 0.01, -75.30 0.85, -79.02 424.58 80
6 05/25/2020 14:28:51 0.01, -75.31 -0.31, -74.04 145.83 80
7 05/27/2020 02:47:51 0.00, -75.30 -0.77, -78.63 379.52 80
8 05/28/2020 02:24:33 0.00, -75.32 0.39, -73.64 191.06 80
9 05/29/2020 14:43:24 -0.01, -75.37 0.63, -78.20 322.59 80




NCC Satellite Simultaneous Nadir Overpasses (SNOs) Prediction Service
